Simultaneous Nadir Overpasses (SNOs) Predictions

Prediction of SNOs near US between AQUA and NPP Satellite Orbit:

Table of predicted SNOs near US for the next 10.0 days since TLE Epoch: 8/13/2022
Index Date (AQUA) Time (AQUA) AQUA Lat,Lon Date (NPP) Time (NPP) NPP Lat,Lon Distance(km) Time Diff (sec)
1 08/15/2022 06:41:14 49.90, -65.49 08/15/2022 06:42:48 50.56, -68.64 235.56 94
2 08/17/2022 19:17:40 49.95, -94.32 08/17/2022 19:14:35 49.39, -97.55 240.64 185
3 08/20/2022 08:43:52 26.83,-101.80 08/20/2022 08:37:25 27.15,-103.50 172.13 387
4 08/20/2022 10:20:11 35.96,-124.06 08/20/2022 10:16:16 36.37,-126.25 201.69 235
